Location: Hillsboro
(38.3483°N, 97.1938°W)
Time: 16:47:08
(UTC-05:00)

Daily predictions for brighter satellites

Satellite Brightness Start Highest point End
(mag) Time Altitude Azimuth Time Altitude Azimuth Time Altitude Azimuth
Meteor 1-27 4.3 20:43:54 10° S 20:49:31 83° W 20:55:08 10° N
ERBS 4.3 20:47:20 10° N 20:49:49 18° NE 20:52:18 10° E
Cosmos 1455 2.2 20:47:30 10° S 20:51:14 55° E 20:54:57 10° NNE
Cosmos 1869 4.0 20:51:45 10° SSE 20:55:16 32° E 20:58:47 10° NNE
CENTAUR R/B 3.5 20:52:05 10° SW 20:57:56 52° NW 21:04:35 10° NNE
Gblst 52 Del rocket 4.2 20:54:47 10° NW 21:00:42 88° SW 21:05:47 12° SE
CZ-3B DEB 1.5 20:56:16 10° NW 21:00:47 50° SW 21:03:10 11° SSE
OTV 4 1.8 20:58:34 10° W 21:01:05 28° SSW 21:03:10 13° SE
Cosmos 1697 Rocket 3.9 20:57:30 10° SW 21:02:57 48° WNW 21:08:24 10° NNE
Cosmos 1400 Rocket 3.0 20:59:45 10° NNW 21:03:38 73° W 21:07:33 10° S
Cosmos 1892 3.1 21:05:54 10° NNW 21:09:40 66° W 21:13:26 10° S
ALOS 4.0 21:05:39 10° SSW 21:09:53 34° W 21:14:08 10° NNW
Cosmos 2297 Rocket 4.2 21:07:35 10° NW 21:12:17 28° WSW 21:16:59 10° SSW
USA 186 1.2 21:11:08 10° S 21:13:43 87° WSW 21:16:32 10° NNW
DELTA 2 R/B (1) 3.8 21:09:00 10° W 21:14:33 63° SSW 21:18:45 18° SE
Nadezhda 4 Rocket 4.3 21:09:07 10° NNW 21:15:21 72° W 21:21:37 10° S
H-2A R/B 4.2 21:11:47 10° SSW 21:15:28 39° W 21:19:08 10° NNW
Cosmos 1315 Rocket 2.7 21:11:59 10° N 21:16:06 79° E 21:20:06 10° SSE
Cosmos 1634 Rocket 4.0 21:14:20 10° S 21:20:36 75° E 21:26:55 10° N
Abrixas rocket 3.5 21:17:37 10° W 21:20:45 40° NNW 21:23:53 10° NE
YAOGAN 6 4.0 21:20:14 20° E 21:21:21 23° ENE 21:24:16 10° NNE
Cosmos 2263 Rocket 3.4 21:17:01 10° N 21:21:35 25° ENE 21:24:22 17° E
Cosmos 1354 Rocket 4.5 21:17:52 10° N 21:22:55 43° ENE 21:26:09 20° SE
Cosmos 2322 Rocket 2.3 21:18:10 10° S 21:23:33 51° ESE 21:28:58 10° NNE
Cosmos 1707 Rocket 3.8 21:19:07 10° SSW 21:23:33 72° W 21:27:59 10° N
Cosmos 1092 Rocket 4.1 21:17:47 10° N 21:24:10 86° W 21:30:30 10° S
Cosmos 1655 Rocket 4.4 21:20:06 10° N 21:26:14 46° ENE 21:30:51 17° SE
Spot 2 Rocket 4.4 21:22:39 10° S 21:27:34 49° W 21:32:31 10° NNW
Cosmos 1733 Rocket 3.6 21:28:28 10° N 21:32:39 38° ENE 21:34:27 27° SE
Cosmos 2360 Rocket 3.2 21:34:16 23° ESE 21:34:50 23° E 21:39:11 10° NE
Meteor 1-29 2.9 21:31:37 10° NNE 21:35:07 89° E 21:38:34 10° SSW
Cosmos 1980 Rocket 3.5 21:30:06 10° SW 21:35:29 44° WNW 21:40:56 10° N
Helios 1B rocket 2.6 21:31:36 10° N 21:35:42 75° WNW 21:39:46 10° SSW
Cosmos 1862 Rocket 4.0 21:34:03 22° SSE 21:36:32 42° E 21:40:46 10° NNE
Lacrosse 4 Rocket 2.1 21:33:56 10° NNW 21:38:03 42° ENE 21:39:39 30° ESE
Intercosmos 25 Rocket 2.8 21:36:12 18° S 21:38:22 72° E 21:41:58 10° N
Meteor 2-20 Rocket 4.4 21:32:55 10° N 21:39:03 76° E 21:44:22 14° SSE
Cosmos 1825 2.1 21:37:56 10° N 21:41:44 68° E 21:43:20 32° SSE
GENESIS II 4.4 21:38:55 10° S 21:42:48 47° ESE 21:46:43 10° NE
Cosmos 1862 3.6 21:39:10 10° N 21:43:03 46° E 21:44:08 36° ESE
Envisat 3.1 21:42:59 14° S 21:47:23 77° WSW 21:52:29 10° NNW
Cosmos 1939 Rocket 2.8 21:45:36 24° S 21:48:01 85° WSW 21:52:04 10° NNW
CZ-4B DEB 3.2 21:48:17 29° SSW 21:49:33 55° W 21:52:33 10° NNW
Cosmos 2242 Rocket 3.7 21:45:42 10° S 21:50:13 78° W 21:54:45 10° N
SL-16 R/B 2.1 21:44:49 10° SSW 21:50:29 86° ESE 21:56:11 10° NNE
SJ-11-01 4.4 21:49:40 19° S 21:52:58 75° WSW 21:57:39 10° NNW
Centaur AC-42 4.3 21:34:22 10° WSW 21:53:18 26° SSW 21:57:14 17° SSE
SPOT 5 3.8 21:54:50 29° E 21:55:35 31° ENE 21:59:44 10° N
Cosmos 2279 Rocket 4.0 21:56:46 10° S 22:03:00 86° W 22:09:17 10° N
ATLAS 5 CENTAUR R/B 3.3 21:58:15 10° NNW 22:03:40 34° NE 22:05:54 27° E
MetOp-B 4.4 22:03:12 39° ESE 22:04:41 50° ENE 22:09:50 10° N
Resurs 01 Rocket 4.4 22:03:36 10° SW 22:06:10 15° W 22:08:46 10° WNW
OAO 3 Rocket 3.3 22:01:24 10° WSW 22:06:14 59° S 22:07:08 50° SE
Meteor 1-26 Rocket 4.4 22:06:23 40° SE 22:07:45 48° E 22:13:15 10° NNE
SEDSat Delta rocket 4.2 22:02:49 10° SW 22:07:59 38° SSE 22:08:32 37° SSE
USA 234 3.4 22:07:21 31° SSE 22:10:40 67° SW 22:17:13 10° NW
SPOT 1/Viking Rocket 4.4 22:11:28 32° ENE 22:11:54 32° ENE 22:16:30 10° N
ARGOS 3.5 22:11:51 41° E 22:12:45 45° ENE 22:17:50 10° N
Atlas Centaur 2 3.4 22:08:50 10° SW 22:15:40 38° SSE 22:16:54 36° SE
Cosmos 1408 4.3 22:19:58 10° NNW 22:23:14 29° W 22:24:35 23° SW
ERS-1 Rocket 3.1 22:22:11 42° S 22:23:50 72° WSW 22:28:52 10° NNW
Cosmos 1844 Rocket 4.3 22:21:23 10° N 22:25:15 19° NE 22:25:44 19° ENE
ERBS 3.5 22:23:22 10° NW 22:26:02 38° W 22:26:02 38° W
MOS 1-B Rocket 4.1 22:26:12 49° ESE 22:27:24 58° ENE 22:32:59 10° N
Sich 1 Rocket 3.6 22:27:14 10° N 22:31:27 73° NE 22:31:27 73° NE
SeaSat 1 2.3 22:39:59 79° E 22:40:05 80° ENE 22:45:03 10° NNW
Meteor 1-14 Rocket 4.1 22:36:13 10° N 22:41:52 71° E 22:42:12 69° ESE
H-2A R/B 3.8 22:44:20 23° NE 22:44:20 23° NE 22:46:30 10° N
USA 245 4.2 22:46:03 66° S 22:46:58 86° WSW 22:52:25 10° NNW
Cosmos 1908 Rocket 4.0 22:44:28 10° NNW 22:48:15 60° NW 22:48:15 60° NW
MetOp-A 4.5 22:49:41 51° SW 22:50:36 59° W 22:55:54 10° NNW
Milstar 3 3.7 22:45:38 10° WSW 22:50:57 29° SSW 22:50:57 29° SSW
USA 229 DEB 3.5 22:51:56 50° SSW 22:53:50 76° ESE 23:00:45 10° NE
USA 229 3.5 22:52:13 53° S 22:53:56 75° ESE 23:00:51 10° NE
Meteor 1-25 Rocket 4.2 22:55:36 10° N 23:00:42 70° NE 23:00:42 70° NE
COSMOS 2428 3.7 23:05:01 35° NE 23:05:01 35° NE 23:08:22 10° NNE
Okean 2 Rocket 4.2 22:58:41 10° N 23:01:36 39° N 23:01:36 39° N
H-2A R/B 2.3 23:04:41 62° N 23:04:41 62° N 23:08:49 10° N
Cosmos 1867 3.7 22:58:26 10° NNW 23:03:20 69° N 23:03:20 69° N
Terra 3.1 23:05:46 33° NNE 23:05:46 33° NNE 23:08:44 10° N
Cosmos 2263 Rocket 2.9 23:00:24 10° NW 23:05:38 43° WSW 23:06:05 42° WSW
Cosmos 2322 Rocket 4.5 23:03:34 10° WSW 23:07:52 22° NW 23:12:13 10° N
Lacrosse 4 Rocket 3.9 23:13:38 10° WNW 23:16:01 17° W 23:16:01 17° W
Cosmos 2360 Rocket 3.1 23:15:51 27° WSW 23:18:29 45° WNW 23:23:55 10° N
Meteor 1-20 Rocket 4.5 23:17:37 10° NNW 23:22:21 64° NNW 23:22:21 64° NNW
Cosmos 968 Rocket 4.5 23:22:17 10° NNW 23:26:25 41° WNW 23:26:25 41° WNW
Cosmos 2333 Rocket 3.9 23:46:51 24° NE 23:46:51 24° NE 23:49:04 10° NNE
CZ-4C R/B 3.9 23:37:45 10° NNW 23:44:08 34° NE 23:44:55 34° ENE
ATLAS 5 CENTAUR R/B 3.3 23:42:42 10° NW 23:47:28 42° W 23:47:28 42° W
Cosmos 2237 Rocket 4.2 23:56:36 19° NE 23:56:36 19° NE 23:58:15 10° NNE
